TimeCDT,TemperatureF,Dew PointF,Humidity,Sea Level PressureIn,VisibilityMPH,Wind Direction,Wind SpeedMPH,Gust SpeedMPH,PrecipitationIn,Events,Conditions,WindDirDegrees,DateUTC
12:53 AM,80.1,72.0,76,29.94,10.0,SW,8.1,-,N/A,,Clear,220,2013-06-12 05:53:00
1:53 AM,81.0,73.0,77,29.93,10.0,SW,3.5,-,N/A,,Clear,230,2013-06-12 06:53:00
2:53 AM,81.0,73.0,77,29.93,10.0,SW,4.6,-,N/A,,Clear,230,2013-06-12 07:53:00
3:53 AM,80.1,73.0,79,29.94,10.0,SW,4.6,-,N/A,,Clear,220,2013-06-12 08:53:00
4:53 AM,80.1,72.0,76,29.95,10.0,SW,5.8,-,N/A,,Clear,220,2013-06-12 09:53:00
5:53 AM,79.0,72.0,79,29.97,10.0,SW,5.8,-,N/A,,Clear,230,2013-06-12 10:53:00
6:53 AM,81.0,72.0,74,29.99,10.0,SW,4.6,-,N/A,,Clear,230,2013-06-12 11:53:00
7:53 AM,82.9,72.0,69,30.00,10.0,WSW,6.9,-,N/A,,Clear,250,2013-06-12 12:53:00
8:53 AM,88.0,72.0,59,30.01,10.0,NW,9.2,-,N/A,,Clear,310,2013-06-12 13:53:00
9:53 AM,84.0,73.0,69,30.03,10.0,West,6.9,-,N/A,,Clear,260,2013-06-12 14:53:00
10:53 AM,89.1,73.9,61,30.02,10.0,WSW,9.2,-,N/A,,Clear,250,2013-06-12 15:53:00
11:53 AM,90.0,73.0,57,30.00,10.0,West,11.5,18.4,N/A,,Clear,260,2013-06-12 16:53:00
12:53 PM,91.9,73.0,54,29.99,10.0,WSW,9.2,-,N/A,,Clear,240,2013-06-12 17:53:00
1:53 PM,91.9,73.9,55,29.96,10.0,SW,8.1,-,N/A,,Clear,230,2013-06-12 18:53:00
2:53 PM,93.0,69.1,45,29.93,10.0,SW,15.0,-,N/A,,Clear,230,2013-06-12 19:53:00
3:53 PM,93.9,70.0,46,29.91,10.0,SW,17.3,21.9,N/A,,Partly Cloudy,220,2013-06-12 20:53:00
4:53 PM,93.0,69.1,45,29.89,10.0,WSW,11.5,19.6,N/A,,Clear,240,2013-06-12 21:53:00
5:53 PM,91.9,69.1,47,29.87,10.0,SW,15.0,-,N/A,,Partly Cloudy,220,2013-06-12 22:53:00
6:53 PM,91.0,70.0,50,29.86,10.0,SSW,13.8,21.9,N/A,,Clear,210,2013-06-12 23:53:00
7:53 PM,88.0,71.1,57,29.86,10.0,SSW,10.4,-,N/A,,Clear,210,2013-06-13 00:53:00
8:53 PM,86.0,71.1,61,29.86,10.0,SSW,9.2,-,N/A,,Clear,210,2013-06-13 01:53:00
9:53 PM,84.9,71.1,63,29.86,10.0,SSW,11.5,-,N/A,,Clear,210,2013-06-13 02:53:00
10:53 PM,84.0,71.1,65,29.85,10.0,SW,11.5,-,N/A,,Clear,220,2013-06-13 03:53:00
11:53 PM,82.9,71.1,67,29.85,10.0,SW,13.8,-,N/A,,Clear,230,2013-06-13 04:53:00